Location: Unspecified
(0.0000°N, 0.0000°E)
Time: 09:04:54
(UTC+00:00)

Vanguard 1 Rocket - Pass Details

Date: 12 December 2017
Orbit: 656 x 4222 km, 34.3° (Epoch: 15 January)

Event Time Altitude Azimuth Distance (km) Brightness Sun altitude
Rises 21:34:04 0° 320° (NW) 6,838 11.9 -48.9°
Reaches altitude 10° 21:39:13 10° 331° (NNW) 6,287 11.5 -49.9°
Enters shadow 21:44:07 19° 343° (NNW) 5,901 11.3 -50.9°
